Port Heiden, AK

5:47 AM AKDT on September 22, 2017 (GMT -0800)
Port Heiden

Weather History for PAPH - February, 2013

Change the Weather History Date:

Friday, February 1, 2013

  Actual Average Record
Temperature  
Mean Temperature 36 °F -  
Max Temperature 41 °F 27 °F 42 °F (2007)
Min Temperature 30 °F 18 °F -23 °F (1999)
Degree Days  
Heating Degree Days 30    
Moisture  
Dew Point 29 °F    
Average Humidity 80    
Maximum Humidity 93    
Minimum Humidity 65    
Precipitation  
Precipitation 0.01 in - - ()
Sea Level Pressure  
Sea Level Pressure 29.45 in    
Wind  
Wind Speed 12 mph (ENE)    
Max Wind Speed 17 mph    
Max Gust Speed 29 mph    
Visibility 9 miles    
Events      
Averages and records for this station are not official NWS values.
T = Trace of Precipitation, MM = Missing Value Source: NWS Daily Summary

Daily Weather History Graph

Daily Weather History Graph

Search for Another Location

Airport or City:

Trip Planner

Search our weather history database for the weather conditions in past years. The results will help you decide how hot, cold, wet, or windy it might be!

Date:

Astronomy

Feb. 01, 2013 Rise Set
Actual Time 9:32 AM AKST 6:04 PM AKST
Civil Twilight 8:50 AM AKST 6:47 PM AKST
Nautical Twilight 8:03 AM AKST 7:33 PM AKST
Astronomical Twilight 7:19 AM AKST 8:17 PM AKST
Moon 12:34 AM AKST (2/1) 10:51 AM AKST (2/1)
Length of Visible Light 9h 57m
Length of Day
8h 32m
Waning Gibbous, 69% of the Moon is Illuminated
Feb 1
Waning Gibbous
Feb 3
Last Quarter
Feb 9
New
Feb 17
First Quarter
Feb 25
Full

Hourly Weather History & Observations

Time (AKST) Temp. Windchill Dew Point Humidity Pressure Visibility Wind Dir Wind Speed Gust Speed Precip Events Conditions
12:16 AM 30.2 °F 18.9 °F 28.4 °F 93% 29.65 in 0.8 mi NNE 16.1 mph - N/A   Overcast
12:36 AM 30.2 °F 19.3 °F 26.6 °F 86% 29.64 in 0.8 mi NNE 15.0 mph - N/A   Overcast
12:56 AM 30.2 °F 18.9 °F 26.6 °F 86% 29.63 in 1.0 mi NNE 16.1 mph - N/A   Overcast
1:16 AM 30.2 °F 18.9 °F 26.6 °F 86% 29.63 in 4.0 mi NNE 16.1 mph - N/A   Overcast
1:36 AM 30.2 °F 19.8 °F 26.6 °F 86% 29.61 in 2.5 mi NNE 13.8 mph - N/A   Overcast
1:56 AM 30.2 °F 19.3 °F 26.6 °F 86% 29.61 in 7.0 mi NNE 15.0 mph - N/A   Overcast
2:16 AM 30.2 °F 18.9 °F 26.6 °F 86% 29.60 in 10.0 mi NE 16.1 mph - N/A   Overcast
2:36 AM 30.2 °F 20.2 °F 26.6 °F 86% 29.60 in 10.0 mi NE 12.7 mph - N/A   Overcast
2:56 AM 30.2 °F 19.3 °F 26.6 °F 86% 29.60 in 10.0 mi NE 15.0 mph - N/A   Overcast
3:16 AM 30.2 °F 20.2 °F 26.6 °F 86% 29.60 in 10.0 mi NE 12.7 mph - N/A   Overcast
3:36 AM 30.2 °F 24.3 °F 26.6 °F 86% 29.60 in 10.0 mi NE 5.8 mph - N/A   Overcast
3:56 AM 32.0 °F 24.8 °F 28.4 °F 87% 29.59 in 10.0 mi NNE 8.1 mph - N/A   Overcast
4:16 AM 30.2 °F 22.6 °F 26.6 °F 86% 29.58 in 10.0 mi NNE 8.1 mph - N/A   Overcast
4:36 AM 32.0 °F 22.5 °F 26.6 °F 80% 29.57 in 10.0 mi NNE 12.7 mph - N/A   Overcast
4:56 AM 32.0 °F 22.5 °F 26.6 °F 80% 29.56 in 10.0 mi NNE 12.7 mph - N/A   Overcast
5:16 AM 32.0 °F 21.2 °F 26.6 °F 80% 29.55 in 10.0 mi NNE 16.1 mph - N/A   Overcast
5:36 AM 32.0 °F 22.5 °F 26.6 °F 80% 29.55 in 10.0 mi NNE 12.7 mph - N/A   Overcast
5:56 AM 32.0 °F 22.1 °F 26.6 °F 80% 29.54 in 10.0 mi NE 13.8 mph - N/A   Overcast
6:16 AM 32.0 °F 21.2 °F 26.6 °F 80% 29.54 in 10.0 mi NE 16.1 mph - N/A   Overcast
6:36 AM 32.0 °F 21.6 °F 26.6 °F 80% 29.53 in 10.0 mi NE 15.0 mph - N/A   Overcast
7:16 AM 32.0 °F 22.5 °F 26.6 °F 80% 29.52 in 10.0 mi NNE 12.7 mph - N/A   Overcast
7:36 AM 33.8 °F 24.3 °F 28.4 °F 81% 29.51 in 10.0 mi NNE 13.8 mph - N/A   Overcast
7:56 AM 33.8 °F 23.5 °F 30.2 °F 87% 29.51 in 10.0 mi NE 16.1 mph - N/A   Overcast
8:16 AM 33.8 °F 23.9 °F 28.4 °F 81% 29.50 in 8.0 mi NNE 15.0 mph - N/A   Overcast
8:36 AM 33.8 °F 23.5 °F 28.4 °F 81% 29.50 in 5.0 mi NE 16.1 mph - N/A   Overcast
8:56 AM 33.8 °F 23.9 °F 28.4 °F 81% 29.50 in 5.0 mi NE 15.0 mph - N/A   Overcast
9:16 AM 33.8 °F 24.8 °F 28.4 °F 81% 29.50 in 3.0 mi NE 12.7 mph - N/A   Overcast
9:36 AM 33.8 °F 24.8 °F 28.4 °F 81% 29.49 in 3.0 mi NNE 12.7 mph - N/A   Overcast
9:56 AM 33.8 °F 24.3 °F 28.4 °F 81% 29.48 in 3.0 mi NE 13.8 mph - N/A   Overcast
10:16 AM 33.8 °F 24.3 °F 28.4 °F 81% 29.48 in 3.0 mi NE 13.8 mph - N/A   Overcast
10:36 AM 33.8 °F 24.3 °F 28.4 °F 81% 29.47 in 10.0 mi NE 13.8 mph - N/A   Overcast
10:56 AM 33.8 °F 24.8 °F 28.4 °F 81% 29.46 in 10.0 mi NE 12.7 mph - N/A   Overcast
11:16 AM 33.8 °F 23.2 °F 30.2 °F 87% 29.45 in 10.0 mi NE 17.3 mph 21.9 mph N/A   Overcast
11:36 AM 33.8 °F 23.9 °F 28.4 °F 81% 29.45 in 10.0 mi NE 15.0 mph - N/A   Overcast
11:56 AM 33.8 °F 25.3 °F 28.4 °F 81% 29.45 in 10.0 mi NNE 11.5 mph - N/A   Overcast
12:16 PM 33.8 °F 24.8 °F 28.4 °F 81% 29.44 in 10.0 mi NNE 12.7 mph - N/A   Overcast
12:36 PM 33.8 °F 25.8 °F 28.4 °F 81% 29.44 in 10.0 mi NNE 10.4 mph - N/A   Overcast
12:56 PM 33.8 °F 27.0 °F 28.4 °F 81% 29.43 in 10.0 mi North 8.1 mph - N/A   Overcast
1:16 PM 33.8 °F 28.6 °F 30.2 °F 87% 29.43 in 9.0 mi ENE 5.8 mph - N/A   Overcast
1:36 PM 33.8 °F 27.7 °F 28.4 °F 81% 29.43 in 10.0 mi East 6.9 mph - N/A   Overcast
1:56 PM 33.8 °F 30.8 °F 28.4 °F 81% 29.42 in 10.0 mi East 3.5 mph - N/A   Overcast
2:16 PM 35.6 °F - 30.2 °F 81% 29.41 in 10.0 mi Calm Calm - N/A   Overcast
2:36 PM 35.6 °F 31.7 °F 30.2 °F 81% 29.40 in 10.0 mi West 4.6 mph - N/A   Overcast
2:56 PM 33.8 °F 29.6 °F 30.2 °F 87% 29.40 in 10.0 mi NW 4.6 mph - N/A   Overcast
3:16 PM 33.8 °F 30.8 °F 30.2 °F 87% 29.40 in 10.0 mi NW 3.5 mph - N/A   Overcast
3:36 PM 35.6 °F 30.7 °F 30.2 °F 81% 29.39 in 10.0 mi West 5.8 mph - N/A   Overcast
3:56 PM 35.6 °F 32.8 °F 30.2 °F 81% 29.38 in 10.0 mi NNE 3.5 mph - N/A   Overcast
4:16 PM 35.6 °F - 30.2 °F 81% 29.38 in 10.0 mi Calm Calm - N/A   Overcast
4:36 PM 39.2 °F 35.9 °F 30.2 °F 70% 29.37 in 10.0 mi SSE 4.6 mph - N/A   Overcast
4:56 PM 39.2 °F 35.0 °F 32.0 °F 75% 29.36 in 10.0 mi SE 5.8 mph - N/A   Overcast
5:16 PM 37.4 °F - 33.8 °F 87% 29.36 in 10.0 mi Calm Calm - N/A   Overcast
5:36 PM 37.4 °F 31.4 °F 32.0 °F 81% 29.35 in 10.0 mi East 8.1 mph - N/A   Overcast
5:56 PM 37.4 °F 30.3 °F 32.0 °F 81% 29.34 in 10.0 mi East 10.4 mph - N/A   Overcast
6:16 PM 39.2 °F 31.6 °F 32.0 °F 75% 29.35 in 10.0 mi SE 12.7 mph - N/A   Overcast
6:36 PM 39.2 °F 33.0 °F 30.2 °F 70% 29.35 in 10.0 mi SSE 9.2 mph - N/A   Overcast
6:56 PM 37.4 °F 29.8 °F 32.0 °F 81% 29.34 in 10.0 mi SSE 11.5 mph - N/A   Overcast
7:16 PM 37.4 °F 31.4 °F 30.2 °F 75% 29.34 in 10.0 mi SE 8.1 mph - N/A   Overcast
7:36 PM 37.4 °F 32.8 °F 30.2 °F 75% 29.34 in 10.0 mi East 5.8 mph - N/A   Mostly Cloudy
7:56 PM 39.2 °F 31.6 °F 30.2 °F 70% 29.33 in 10.0 mi ESE 12.7 mph 18.4 mph N/A   Partly Cloudy
8:16 PM 39.2 °F 37.0 °F 30.2 °F 70% 29.33 in 10.0 mi ESE 3.5 mph - N/A   Clear
8:36 PM 39.2 °F 35.0 °F 30.2 °F 70% 29.32 in 10.0 mi East 5.8 mph - N/A   Clear
8:56 PM 39.2 °F 34.2 °F 30.2 °F 70% 29.31 in 10.0 mi South 6.9 mph - N/A   Partly Cloudy
9:16 PM 41.0 °F 39.0 °F 30.2 °F 65% 29.31 in 10.0 mi South 3.5 mph - N/A   Partly Cloudy
9:36 PM 41.0 °F 34.3 °F 32.0 °F 70% 29.30 in 10.0 mi SSE 11.5 mph 28.8 mph N/A   Scattered Clouds
9:56 PM 39.2 °F 33.6 °F 30.2 °F 70% 29.30 in 10.0 mi SSE 8.1 mph 21.9 mph N/A   Scattered Clouds
10:16 PM 41.0 °F 39.0 °F 30.2 °F 65% 29.29 in 10.0 mi SSE 3.5 mph - N/A   Scattered Clouds
10:36 PM 39.2 °F 31.6 °F 30.2 °F 70% 29.29 in 10.0 mi SSE 12.7 mph - N/A   Partly Cloudy
10:56 PM 39.2 °F 31.6 °F 32.0 °F 75% 29.29 in 10.0 mi SE 12.7 mph - N/A   Scattered Clouds
11:16 PM 39.2 °F 31.2 °F 30.2 °F 70% 29.29 in 10.0 mi SSE 13.8 mph - N/A   Scattered Clouds
11:36 PM 39.2 °F 30.2 °F 30.2 °F 70% 29.28 in 10.0 mi SE 17.3 mph - N/A   Scattered Clouds
11:56 PM 37.4 °F 30.3 °F 30.2 °F 75% 29.29 in 10.0 mi SSE 10.4 mph - N/A   Scattered Clouds